{"data":{"norad_id":57090,"epoch":"2026-05-24T22:17:59.677152Z","epoch_age_seconds":81340,"freshness":"FRESH","line1":"1 57090U 23088AU  26144.92916293  .00000357  00000+0  22508-4 0  9995","line2":"2 57090  43.0064  25.2620 0001607 257.4082 102.6590 15.27579555162169","mean_motion":15.27579555,"eccentricity":0.0001607,"inclination_deg":43.0064,"raan_deg":25.262,"arg_perigee_deg":257.4082,"mean_anomaly_deg":102.659,"bstar":2.2508e-5,"rev_number":16216,"period_min":94.266776174548,"perigee_km":481.9478357103,"apogee_km":484.15302134983,"semimajor_km":6861.1874285301,"source":"CELESTRAK","updated_at":"2026-05-25T13:38:18.217684Z"}}